AZG901 UBBB-EDDF

Flight info

Callsign AZG901
Flight time N/A
Altitude 28000
Route RASAM N199 LUSAL/N0486F340 N319 ADEKI DCT BADIR DCT LAGAS DCT FOQUS DCT ROLIN DCT OLDUD/N0478F360 UL746 ODERO DCT OPT DCT MOPUG DCT SASAL DCT SUBEN Q162 SPESA SPESA5C
Aircraft B77L/H-SDE1E2E3FGHIJ2J3J4J5M1RWXY/LB1D1

Departure

Time 2026-05-07 19:49
Airport Heydar Aliyev International Airport (UBBB)

Arrival

Time N/A
Airport Frankfurt Main Airport (EDDF)
Time Latitude Longitude Altitude Speed Heading
2026-05-07 18:53 40.45841 50.05861 19 ft 0 kts 269°
2026-05-07 19:31 40.45841 50.05882 21 ft 4 kts 269°
2026-05-07 19:31 40.45841 50.05918 22 ft 4 kts 269°
2026-05-07 19:31 40.45842 50.05944 23 ft 4 kts 248°
2026-05-07 19:31 40.45853 50.05963 22 ft 4 kts 200°
2026-05-07 19:32 40.45876 50.05968 22 ft 4 kts 179°
2026-05-07 19:32 40.45903 50.05968 23 ft 3 kts 179°
2026-05-07 19:32 40.45906 50.05968 23 ft 1 kts 179°
2026-05-07 19:38 40.45896 50.05968 19 ft 3 kts 179°
2026-05-07 19:38 40.45867 50.05980 19 ft 5 kts 141°
2026-05-07 19:38 40.45847 50.06033 19 ft 8 kts 104°
2026-05-07 19:39 40.45882 50.06096 19 ft 12 kts 18°
2026-05-07 19:39 40.45987 50.06104 18 ft 17 kts 359°
2026-05-07 19:39 40.46105 50.06103 18 ft 17 kts 359°
2026-05-07 19:39 40.46223 50.06102 19 ft 17 kts 359°
2026-05-07 19:40 40.46340 50.06100 19 ft 17 kts 359°
2026-05-07 19:40 40.46458 50.06098 19 ft 17 kts 359°
2026-05-07 19:40 40.46576 50.06095 19 ft 17 kts 359°
2026-05-07 19:40 40.46693 50.06093 19 ft 17 kts 359°
2026-05-07 19:41 40.46811 50.06093 19 ft 17 kts 360°
2026-05-07 19:41 40.46929 50.06092 19 ft 17 kts 359°
2026-05-07 19:41 40.47046 50.06089 19 ft 17 kts 359°
2026-05-07 19:41 40.47164 50.06087 19 ft 17 kts 359°
2026-05-07 19:42 40.47281 50.06086 18 ft 17 kts 359°
2026-05-07 19:42 40.47399 50.06084 18 ft 17 kts 359°
2026-05-07 19:42 40.47516 50.06082 19 ft 17 kts 359°
2026-05-07 19:42 40.47632 50.06080 19 ft 17 kts 359°
2026-05-07 19:43 40.47750 50.06079 19 ft 17 kts 360°
2026-05-07 19:43 40.47867 50.06077 19 ft 17 kts 359°
2026-05-07 19:43 40.47985 50.06075 19 ft 17 kts 359°
2026-05-07 19:43 40.48103 50.06071 19 ft 17 kts 359°
2026-05-07 19:44 40.48220 50.06071 19 ft 17 kts
2026-05-07 19:44 40.48338 50.06072 19 ft 17 kts
2026-05-07 19:44 40.48417 50.06070 19 ft 0 kts 359°
2026-05-07 19:46 40.48419 50.06070 19 ft 1 kts 359°
2026-05-07 19:46 40.48437 50.06070 19 ft 4 kts 359°
2026-05-07 19:46 40.48476 50.06088 18 ft 9 kts 36°
2026-05-07 19:46 40.48502 50.06199 17 ft 16 kts 93°
2026-05-07 19:47 40.48419 50.06283 16 ft 17 kts 174°
2026-05-07 19:47 40.48355 50.06285 16 ft 0 kts 179°
2026-05-07 19:47 40.48298 50.06286 16 ft 23 kts 179°
2026-05-07 19:48 40.47906 50.06291 18 ft 90 kts 179°
2026-05-07 19:48 40.47069 50.06303 16 ft 148 kts 179°
2026-05-07 19:48 40.45902 50.06285 119 ft 180 kts 181°
2026-05-07 19:48 40.44623 50.06266 487 ft 190 kts 181°
2026-05-07 19:49 40.43300 50.06268 1061 ft 191 kts 180°
2026-05-07 19:49 40.41942 50.06322 1598 ft 195 kts 177°
2026-05-07 19:49 40.40590 50.06414 2047 ft 199 kts 175°
2026-05-07 19:49 40.39174 50.06545 2432 ft 209 kts 173°
2026-05-07 19:50 40.37715 50.06752 2917 ft 212 kts 169°
2026-05-07 19:50 40.36284 50.07206 3436 ft 212 kts 158°
2026-05-07 19:50 40.34986 50.08108 3933 ft 210 kts 143°
2026-05-07 19:50 40.33769 50.09247 4333 ft 218 kts 142°
2026-05-07 19:51 40.32615 50.10547 4723 ft 227 kts 135°
2026-05-07 19:51 40.31445 50.12022 5008 ft 242 kts 135°
2026-05-07 19:51 40.30190 50.13645 5269 ft 259 kts 135°
2026-05-07 19:51 40.28888 50.15334 5741 ft 266 kts 127°
2026-05-07 19:52 40.28198 50.17564 6224 ft 271 kts 91°
2026-05-07 19:52 40.28350 50.20013 6729 ft 273 kts 86°
2026-05-07 19:52 40.28396 50.22547 7226 ft 281 kts 91°
2026-05-07 19:52 40.28361 50.25112 7776 ft 282 kts 91°
2026-05-07 19:53 40.28317 50.27713 7999 ft 290 kts 91°
2026-05-07 19:53 40.28289 50.29475 7975 ft 291 kts 90°
2026-05-07 19:53 40.28464 50.32095 8142 ft 289 kts 80°
2026-05-07 19:53 40.28840 50.34693 8768 ft 292 kts 79°
2026-05-07 19:54 40.29221 50.37333 9356 ft 297 kts 79°
2026-05-07 19:54 40.29593 50.40020 9927 ft 301 kts 77°
2026-05-07 19:54 40.30397 50.42556 10275 ft 309 kts 51°
2026-05-07 19:54 40.32046 50.44436 10420 ft 324 kts 23°
2026-05-07 19:55 40.34258 50.45143 10580 ft 335 kts 359°
2026-05-07 19:55 40.36657 50.45154 10731 ft 355 kts 356°
2026-05-07 19:55 40.39191 50.45111 10991 ft 372 kts 356°
2026-05-07 19:55 40.41818 50.45069 11521 ft 382 kts 356°
2026-05-07 19:56 40.44500 50.45042 12212 ft 389 kts 357°
2026-05-07 19:56 40.47220 50.45029 13028 ft 392 kts 356°
2026-05-07 19:56 40.49930 50.45026 13813 ft 397 kts 356°
2026-05-07 19:56 40.52755 50.45025 14450 ft 404 kts 356°
2026-05-07 19:57 40.55526 50.44949 15032 ft 403 kts 350°
2026-05-07 19:57 40.58201 50.43896 15463 ft 402 kts 327°
2026-05-07 19:57 40.60388 50.41673 16163 ft 396 kts 308°
2026-05-07 19:57 40.61926 50.38719 16906 ft 391 kts 292°
2026-05-07 19:58 40.62838 50.35365 17564 ft 389 kts 277°
2026-05-07 19:58 40.63012 50.31842 18134 ft 386 kts 266°
2026-05-07 19:58 40.62934 50.28283 18666 ft 392 kts 265°
2026-05-07 19:58 40.62828 50.24688 19362 ft 392 kts 265°
2026-05-07 19:59 40.62727 50.21110 20091 ft 392 kts 265°
2026-05-07 19:59 40.62636 50.17521 20755 ft 393 kts 265°
2026-05-07 19:59 40.62556 50.13914 21373 ft 396 kts 265°
2026-05-07 19:59 40.62483 50.10280 21981 ft 398 kts 265°
2026-05-07 20:00 40.62413 50.06628 22611 ft 400 kts 265°
2026-05-07 20:00 40.62345 50.02962 23239 ft 402 kts 264°
2026-05-07 20:00 40.62276 49.99268 23806 ft 404 kts 264°
2026-05-07 20:00 40.62206 49.95558 24301 ft 406 kts 264°
2026-05-07 20:01 40.62134 49.91835 24810 ft 408 kts 264°
2026-05-07 20:01 40.62062 49.88145 25322 ft 409 kts 264°
2026-05-07 20:01 40.61988 49.84397 25822 ft 411 kts 264°
2026-05-07 20:01 40.61912 49.80628 26311 ft 412 kts 264°
2026-05-07 20:02 40.61834 49.76849 26790 ft 414 kts 264°
2026-05-07 20:02 40.61777 49.73039 27263 ft 417 kts 264°
2026-05-07 20:02 40.61745 49.69217 27725 ft 419 kts 264°
2026-05-07 20:02 40.61720 49.65376 28136 ft 421 kts 264°
2026-05-07 20:03 40.61659 49.57536 28116 ft 434 kts 264°
2026-05-07 20:03 40.61587 49.49545 28123 ft 438 kts 264°
2026-05-07 20:04 40.61504 49.41475 28631 ft 441 kts 264°
2026-05-07 20:04 40.61464 49.37466 29407 ft 434 kts 264°
2026-05-07 20:04 40.61422 49.33529 30097 ft 429 kts 264°
2026-05-07 20:05 40.61376 49.29609 30573 ft 427 kts 264°
2026-05-07 20:05 40.61329 49.25699 30884 ft 428 kts 264°
2026-05-07 20:05 40.61280 49.21778 31183 ft 429 kts 264°
2026-05-07 20:05 40.61228 49.17852 31535 ft 428 kts 264°
2026-05-07 20:06 40.61162 49.13937 31920 ft 427 kts 263°
2026-05-07 20:06 40.61087 49.10027 32298 ft 426 kts 263°
2026-05-07 20:06 40.61009 49.06134 32622 ft 426 kts 263°
2026-05-07 20:06 40.60931 49.02279 32956 ft 426 kts 263°
2026-05-07 20:07 40.60851 48.98391 33288 ft 425 kts 263°
2026-05-07 20:07 40.60772 48.94501 33595 ft 425 kts 263°
2026-05-07 20:07 40.60693 48.90616 33895 ft 424 kts 263°
2026-05-07 20:07 40.60613 48.86731 34200 ft 424 kts 263°
2026-05-07 20:08 40.60531 48.82847 34445 ft 424 kts 263°
2026-05-07 20:08 40.60447 48.78968 34634 ft 425 kts 263°
2026-05-07 20:08 40.60362 48.75066 34838 ft 426 kts 263°
2026-05-07 20:08 40.60276 48.71165 35051 ft 427 kts 263°
2026-05-07 20:09 40.60189 48.67264 35264 ft 427 kts 263°
2026-05-07 20:09 40.60100 48.63354 35458 ft 428 kts 263°
2026-05-07 20:09 40.60011 48.59439 35634 ft 428 kts 263°
2026-05-07 20:10 40.59825 48.51592 36009 ft 429 kts 263°
2026-05-07 20:10 40.59633 48.43724 36122 ft 432 kts 263°
2026-05-07 20:11 40.59440 48.35829 36159 ft 431 kts 263°
2026-05-07 20:11 40.59237 48.27946 36153 ft 430 kts 263°
2026-05-07 20:12 40.59032 48.20122 36144 ft 430 kts 263°
2026-05-07 20:12 40.58820 48.12271 36157 ft 429 kts 263°
2026-05-07 20:13 40.58601 48.04429 36145 ft 429 kts 263°
2026-05-07 20:13 40.59143 47.96598 36160 ft 441 kts 280°
2026-05-07 20:14 40.61698 47.89133 36145 ft 460 kts 298°
2026-05-07 20:14 40.65718 47.82485 36161 ft 466 kts 302°
2026-05-07 20:15 40.69847 47.75880 36162 ft 467 kts 301°
2026-05-07 20:15 40.73919 47.69189 36167 ft 467 kts 301°
2026-05-07 20:16 40.77953 47.62464 36169 ft 468 kts 301°
2026-05-07 20:16 40.81992 47.55716 36151 ft 468 kts 301°
2026-05-07 20:17 40.86002 47.49011 36163 ft 468 kts 301°
2026-05-07 20:17 40.90039 47.42246 36165 ft 469 kts 301°
2026-05-07 20:18 40.94075 47.35466 36160 ft 469 kts 301°
2026-05-07 20:18 40.98105 47.28681 36176 ft 469 kts 301°
2026-05-07 20:19 41.02135 47.21878 36177 ft 469 kts 301°
2026-05-07 20:19 41.06158 47.15074 36177 ft 469 kts 301°
2026-05-07 20:20 41.10176 47.08263 36169 ft 469 kts 301°
2026-05-07 20:20 41.14182 47.01458 36189 ft 467 kts 301°
2026-05-07 20:21 41.18159 46.94684 36178 ft 467 kts 301°
2026-05-07 20:21 41.22153 46.87867 36195 ft 468 kts 301°
2026-05-07 20:22 41.26155 46.81022 36206 ft 469 kts 300°
2026-05-07 20:22 41.29348 46.73632 36220 ft 457 kts 286°
2026-05-07 20:23 41.31099 46.65596 36221 ft 449 kts 275°
2026-05-07 20:23 41.32202 46.57413 36219 ft 451 kts 275°
2026-05-07 20:24 41.33296 46.49178 36217 ft 453 kts 275°
2026-05-07 20:24 41.34423 46.40904 36206 ft 455 kts 275°
2026-05-07 20:25 41.35565 46.32613 36198 ft 456 kts 275°
2026-05-07 20:25 41.36706 46.24307 36189 ft 456 kts 275°
2026-05-07 20:26 41.37833 46.16049 36185 ft 456 kts 275°
2026-05-07 20:26 41.38958 46.07748 36183 ft 456 kts 275°
2026-05-07 20:27 41.40083 45.99404 36175 ft 456 kts 275°
2026-05-07 20:27 41.41197 45.91090 36190 ft 456 kts 275°
2026-05-07 20:28 41.42307 45.82759 36189 ft 457 kts 275°
2026-05-07 20:28 41.43413 45.74414 36175 ft 457 kts 275°
2026-05-07 20:29 41.44506 45.66108 36182 ft 459 kts 275°
2026-05-07 20:29 41.45605 45.57716 36175 ft 460 kts 275°
2026-05-07 20:30 41.46702 45.49289 36176 ft 461 kts 275°
2026-05-07 20:30 41.47795 45.40854 36169 ft 462 kts 275°
2026-05-07 20:31 41.48741 45.32377 36186 ft 461 kts 272°
2026-05-07 20:31 41.49430 45.23863 36174 ft 462 kts 272°
2026-05-07 20:32 41.50091 45.15382 36187 ft 463 kts 272°
2026-05-07 20:32 41.50770 45.06826 36179 ft 464 kts 272°
2026-05-07 20:33 41.51457 44.98241 36183 ft 465 kts 272°
2026-05-07 20:33 41.52141 44.89642 36189 ft 466 kts 272°
2026-05-07 20:34 41.52818 44.81022 36191 ft 467 kts 272°
2026-05-07 20:34 41.53489 44.72394 36188 ft 468 kts 273°
2026-05-07 20:35 41.54156 44.63742 36196 ft 469 kts 273°
2026-05-07 20:35 41.54816 44.55080 36205 ft 469 kts 273°
2026-05-07 20:36 41.55471 44.46406 36209 ft 470 kts 273°
2026-05-07 20:36 41.56116 44.37775 36215 ft 471 kts 273°
2026-05-07 20:37 41.56789 44.29068 36213 ft 472 kts 276°
2026-05-07 20:37 41.58486 44.20559 36219 ft 477 kts 288°
2026-05-07 20:38 41.61364 44.12519 36227 ft 481 kts 296°
2026-05-07 20:38 41.64615 44.04681 36223 ft 482 kts 296°
2026-05-07 20:39 41.67834 43.96880 36216 ft 482 kts 296°
2026-05-07 20:39 41.71031 43.89001 36221 ft 482 kts 296°
2026-05-07 20:40 41.74208 43.81104 36224 ft 482 kts 296°
2026-05-07 20:40 41.77378 43.73200 36221 ft 482 kts 296°
2026-05-07 20:41 41.80545 43.65287 36218 ft 481 kts 296°
2026-05-07 20:41 41.83702 43.57379 36220 ft 481 kts 296°
2026-05-07 20:42 41.86855 43.49464 36217 ft 481 kts 296°
2026-05-07 20:42 41.89466 43.42889 36221 ft 480 kts 296°
2026-05-07 20:43 41.92604 43.34968 36220 ft 481 kts 296°
2026-05-07 20:43 41.95740 43.27030 36213 ft 481 kts 296°
2026-05-07 20:44 41.98872 43.19080 36214 ft 481 kts 296°
2026-05-07 20:44 42.02001 43.11118 36219 ft 482 kts 296°
2026-05-07 20:45 42.04958 43.03043 36198 ft 480 kts 287°
2026-05-07 20:45 42.05991 42.94288 36211 ft 477 kts 268°
2026-05-07 20:46 42.05207 42.85446 36205 ft 477 kts 261°
2026-05-07 20:46 42.04183 42.76601 36200 ft 479 kts 261°
2026-05-07 20:47 42.03191 42.67723 36201 ft 481 kts 261°
2026-05-07 20:47 42.02229 42.58794 36198 ft 483 kts 261°
2026-05-07 20:48 42.01274 42.49850 36198 ft 484 kts 261°
2026-05-07 20:48 42.00309 42.40882 36193 ft 484 kts 261°
2026-05-07 20:49 41.99334 42.31917 36198 ft 485 kts 261°
2026-05-07 20:49 41.98358 42.23018 36191 ft 484 kts 261°
2026-05-07 20:50 41.97370 42.14074 36196 ft 484 kts 261°
2026-05-07 20:50 41.96376 42.05139 36195 ft 483 kts 261°
2026-05-07 20:51 41.95376 41.96216 36196 ft 482 kts 261°
2026-05-07 20:51 41.94370 41.87304 36195 ft 482 kts 261°
2026-05-07 20:52 41.93359 41.78408 36197 ft 482 kts 261°
2026-05-07 20:52 41.92340 41.69506 36200 ft 482 kts 261°
2026-05-07 20:53 41.91312 41.60598 36202 ft 482 kts 261°
2026-05-07 20:53 41.90286 41.51759 36201 ft 482 kts 261°
2026-05-07 20:54 41.89246 41.42865 36203 ft 482 kts 261°
2026-05-07 20:54 41.88199 41.33969 36202 ft 482 kts 261°
2026-05-07 20:55 41.87145 41.25075 36204 ft 482 kts 261°
2026-05-07 20:55 41.86084 41.16181 36202 ft 482 kts 261°
2026-05-07 20:56 41.85022 41.07346 36205 ft 483 kts 261°
2026-05-07 20:56 41.83948 40.98463 36205 ft 483 kts 261°
2026-05-07 20:57 41.82864 40.89559 36203 ft 483 kts 261°
2026-05-07 20:57 41.81774 40.80664 36205 ft 483 kts 261°
2026-05-07 20:58 41.80677 40.71765 36206 ft 484 kts 261°
2026-05-07 20:58 41.80177 40.62799 36206 ft 483 kts 272°
2026-05-07 20:59 41.80763 40.53846 36214 ft 482 kts 277°
2026-05-07 20:59 41.81527 40.44905 36208 ft 483 kts 277°
2026-05-07 21:00 41.82263 40.36014 36208 ft 483 kts 277°
2026-05-07 21:00 41.82972 40.27053 36206 ft 484 kts 277°
2026-05-07 21:01 41.83664 40.18080 36208 ft 484 kts 276°
2026-05-07 21:01 41.84348 40.09095 36205 ft 484 kts 276°
2026-05-07 21:02 41.85027 40.00097 36202 ft 485 kts 277°
2026-05-07 21:02 41.85700 39.91085 36200 ft 485 kts 277°
2026-05-07 21:03 41.86366 39.82083 36207 ft 485 kts 277°
2026-05-07 21:03 41.87027 39.73058 36210 ft 486 kts 276°
2026-05-07 21:04 41.87676 39.64089 36203 ft 486 kts 276°
2026-05-07 21:04 41.88322 39.55059 36206 ft 486 kts 276°
2026-05-07 21:05 41.88962 39.46018 36204 ft 486 kts 276°
2026-05-07 21:05 41.89595 39.36978 36204 ft 486 kts 276°
2026-05-07 21:06 41.90219 39.27956 36201 ft 486 kts 276°
2026-05-07 21:06 41.90836 39.18934 36200 ft 485 kts 276°
2026-05-07 21:07 41.91445 39.09918 36202 ft 484 kts 276°
2026-05-07 21:07 41.92047 39.00908 36195 ft 484 kts 276°
2026-05-07 21:08 41.92641 38.91910 36197 ft 483 kts 276°
2026-05-07 21:08 41.93227 38.82925 36198 ft 483 kts 276°
2026-05-07 21:09 41.93805 38.73953 36195 ft 482 kts 276°
2026-05-07 21:09 41.94376 38.64974 36196 ft 482 kts 276°
2026-05-07 21:10 41.94940 38.56011 36195 ft 481 kts 276°
2026-05-07 21:10 41.95495 38.47059 36195 ft 481 kts 276°
2026-05-07 21:11 41.96041 38.38149 36194 ft 481 kts 276°
2026-05-07 21:11 41.96851 38.24715 36199 ft 481 kts 276°
2026-05-07 21:12 41.97382 38.15760 36199 ft 481 kts 276°
2026-05-07 21:12 41.97906 38.06803 36199 ft 481 kts 276°
2026-05-07 21:13 41.98424 37.97839 36197 ft 480 kts 276°
2026-05-07 21:13 41.98934 37.88890 36193 ft 480 kts 276°
2026-05-07 21:14 41.99437 37.79933 36208 ft 480 kts 276°
2026-05-07 21:14 41.99929 37.71034 36202 ft 480 kts 276°
2026-05-07 21:15 42.00421 37.62026 36197 ft 480 kts 276°
2026-05-07 21:15 42.00899 37.53138 36189 ft 479 kts 276°
2026-05-07 21:16 42.01373 37.44199 36193 ft 479 kts 276°
2026-05-07 21:16 42.01841 37.35243 36198 ft 479 kts 276°
2026-05-07 21:17 42.02300 37.26320 36188 ft 479 kts 276°
2026-05-07 21:17 42.02753 37.17388 36185 ft 478 kts 276°
2026-05-07 21:18 42.03198 37.08470 36180 ft 478 kts 276°
2026-05-07 21:18 42.03634 36.99596 36182 ft 478 kts 276°
2026-05-07 21:19 42.04065 36.90672 36181 ft 478 kts 276°
2026-05-07 21:19 42.04489 36.81755 36185 ft 478 kts 276°
2026-05-07 21:20 42.04906 36.72829 36187 ft 478 kts 276°
2026-05-07 21:20 42.05316 36.63915 36186 ft 477 kts 275°
2026-05-07 21:21 42.05720 36.54994 36182 ft 477 kts 276°
2026-05-07 21:21 42.06116 36.46083 36183 ft 477 kts 275°
2026-05-07 21:22 42.06505 36.37161 36182 ft 477 kts 275°
2026-05-07 21:22 42.06885 36.28299 36180 ft 477 kts 275°
2026-05-07 21:23 42.07260 36.19398 36179 ft 476 kts 275°
2026-05-07 21:23 42.07627 36.10499 36178 ft 476 kts 275°
2026-05-07 21:24 42.07988 36.01598 36176 ft 476 kts 275°
2026-05-07 21:24 42.08342 35.92704 36176 ft 475 kts 275°
2026-05-07 21:25 42.08688 35.83819 36174 ft 475 kts 275°
2026-05-07 21:25 42.09028 35.74941 36171 ft 475 kts 275°
2026-05-07 21:26 42.09360 35.66065 36170 ft 474 kts 275°
2026-05-07 21:26 42.09685 35.57203 36165 ft 473 kts 275°
2026-05-07 21:27 42.10001 35.48399 36164 ft 473 kts 275°
2026-05-07 21:27 42.10311 35.39560 36164 ft 472 kts 275°
2026-05-07 21:28 42.10615 35.30725 36166 ft 472 kts 275°
2026-05-07 21:28 42.10911 35.21898 36160 ft 471 kts 275°
2026-05-07 21:29 42.11201 35.13082 36153 ft 470 kts 275°
2026-05-07 21:29 42.11436 35.05769 36155 ft 470 kts 275°
2026-05-07 21:30 42.11712 34.96971 36154 ft 470 kts 275°
2026-05-07 21:30 42.12024 34.86758 36145 ft 469 kts 275°
2026-05-07 21:31 42.12244 34.79394 36151 ft 469 kts 275°
2026-05-07 21:31 42.12497 34.70688 36146 ft 468 kts 275°
2026-05-07 21:32 42.12746 34.61920 36142 ft 468 kts 275°
2026-05-07 21:32 42.12988 34.53157 36140 ft 468 kts 275°
2026-05-07 21:33 42.13223 34.44392 36140 ft 468 kts 275°
2026-05-07 21:33 42.13451 34.35638 36140 ft 467 kts 275°
2026-05-07 21:34 42.13673 34.26879 36138 ft 467 kts 275°
2026-05-07 21:34 42.13888 34.18130 36136 ft 467 kts 275°
2026-05-07 21:35 42.14096 34.09382 36141 ft 467 kts 275°
2026-05-07 21:35 42.14297 34.00646 36136 ft 466 kts 275°
2026-05-07 21:36 42.14490 33.91976 36135 ft 466 kts 275°
2026-05-07 21:36 42.14678 33.83236 36130 ft 466 kts 275°
2026-05-07 21:37 42.14859 33.74520 36132 ft 465 kts 275°
2026-05-07 21:37 42.15033 33.65815 36131 ft 464 kts 275°
2026-05-07 21:38 42.15200 33.57109 36133 ft 464 kts 275°
2026-05-07 21:38 42.15361 33.48424 36132 ft 463 kts 275°
2026-05-07 21:39 42.15514 33.39763 36130 ft 463 kts 275°
2026-05-07 21:39 42.15662 33.31087 36133 ft 462 kts 275°
2026-05-07 21:40 42.15802 33.22426 36134 ft 462 kts 275°
2026-05-07 21:40 42.15936 33.13777 36131 ft 461 kts 275°
2026-05-07 21:41 42.16063 33.05185 36132 ft 461 kts 275°
2026-05-07 21:41 42.16183 32.96555 36136 ft 461 kts 275°
2026-05-07 21:42 42.16298 32.87901 36136 ft 461 kts 275°
2026-05-07 21:42 42.16406 32.79265 36136 ft 461 kts 275°
2026-05-07 21:43 42.16509 32.70609 36134 ft 461 kts 275°
2026-05-07 21:43 42.16779 32.62002 36139 ft 458 kts 280°
2026-05-07 21:44 42.18037 32.53650 36144 ft 453 kts 288°
2026-05-07 21:44 42.19711 32.45445 36130 ft 454 kts 288°
2026-05-07 21:45 42.21371 32.37281 36138 ft 454 kts 288°
2026-05-07 21:45 42.23018 32.29035 36134 ft 455 kts 288°
2026-05-07 21:46 42.24647 32.20788 36133 ft 455 kts 288°
2026-05-07 21:46 42.26269 32.12529 36128 ft 455 kts 288°
2026-05-07 21:47 42.27886 32.04263 36126 ft 455 kts 288°
2026-05-07 21:47 42.29496 31.95997 36139 ft 455 kts 288°
2026-05-07 21:48 42.31099 31.87736 36135 ft 454 kts 288°
2026-05-07 21:48 42.32696 31.79471 36135 ft 454 kts 288°
2026-05-07 21:49 42.34274 31.71271 36137 ft 454 kts 288°
2026-05-07 21:49 42.35865 31.62972 36137 ft 453 kts 288°
2026-05-07 21:50 42.37431 31.54765 36138 ft 453 kts 288°
2026-05-07 21:50 42.38997 31.46520 36138 ft 453 kts 288°
2026-05-07 21:51 42.40560 31.38257 36138 ft 453 kts 287°
2026-05-07 21:51 42.42117 31.29997 36138 ft 453 kts 287°
2026-05-07 21:52 42.43666 31.21737 36137 ft 453 kts 287°
2026-05-07 21:52 42.45209 31.13473 36142 ft 452 kts 287°
2026-05-07 21:53 42.46738 31.05248 36140 ft 452 kts 287°
2026-05-07 21:53 42.48267 30.96990 36142 ft 452 kts 287°
2026-05-07 21:54 42.49793 30.88713 36141 ft 452 kts 287°
2026-05-07 21:54 42.51312 30.80437 36141 ft 452 kts 287°
2026-05-07 21:55 42.52823 30.72168 36144 ft 452 kts 287°
2026-05-07 21:55 42.54329 30.63887 36142 ft 452 kts 286°
2026-05-07 21:56 42.55829 30.55602 36139 ft 452 kts 286°
2026-05-07 21:56 42.57324 30.47308 36139 ft 452 kts 286°
2026-05-07 21:57 42.58812 30.39020 36142 ft 452 kts 286°
2026-05-07 21:57 42.60400 30.30769 36139 ft 450 kts 292°
2026-05-07 21:58 42.63072 30.23139 36150 ft 447 kts 302°
2026-05-07 21:58 42.66684 30.16287 36148 ft 446 kts 308°
2026-05-07 21:59 42.70490 30.09686 36141 ft 447 kts 309°
2026-05-07 21:59 42.74325 30.03003 36145 ft 448 kts 308°
2026-05-07 22:00 42.78130 29.96294 36144 ft 448 kts 308°
2026-05-07 22:00 42.81928 29.89552 36143 ft 449 kts 308°
2026-05-07 22:01 42.85725 29.82788 36145 ft 449 kts 308°
2026-05-07 22:01 42.89519 29.76017 36146 ft 449 kts 308°
2026-05-07 22:02 42.93309 29.69237 36143 ft 450 kts 307°
2026-05-07 22:02 42.97076 29.62484 36146 ft 449 kts 307°
2026-05-07 22:03 43.00854 29.55696 36147 ft 449 kts 307°
2026-05-07 22:03 43.04632 29.48895 36148 ft 449 kts 307°
2026-05-07 22:04 43.08402 29.42089 36146 ft 448 kts 307°
2026-05-07 22:04 43.12167 29.35277 36145 ft 448 kts 307°
2026-05-07 22:05 43.15925 29.28464 36144 ft 448 kts 307°
2026-05-07 22:05 43.19679 29.21642 36143 ft 449 kts 306°
2026-05-07 22:06 43.23433 29.14803 36145 ft 449 kts 306°
2026-05-07 22:06 43.27185 29.07952 36142 ft 449 kts 306°
2026-05-07 22:07 43.30933 29.01092 36140 ft 449 kts 306°
2026-05-07 22:07 43.34680 28.94219 36143 ft 450 kts 306°
2026-05-07 22:08 43.38431 28.87322 36143 ft 451 kts 306°
2026-05-07 22:08 43.42183 28.80406 36147 ft 451 kts 306°
2026-05-07 22:09 43.45908 28.73527 36140 ft 451 kts 306°
2026-05-07 22:09 43.49661 28.66576 36141 ft 452 kts 306°
2026-05-07 22:10 43.53412 28.59614 36139 ft 452 kts 306°
2026-05-07 22:10 43.57163 28.52636 36134 ft 453 kts 306°
2026-05-07 22:11 43.60912 28.45643 36126 ft 454 kts 306°
2026-05-07 22:11 43.64663 28.38631 36119 ft 454 kts 306°
2026-05-07 22:12 43.68412 28.31607 36114 ft 454 kts 306°
2026-05-07 22:12 43.72159 28.24570 36108 ft 455 kts 306°
2026-05-07 22:13 43.75905 28.17515 36106 ft 455 kts 306°
2026-05-07 22:13 43.79627 28.10492 36102 ft 455 kts 306°
2026-05-07 22:14 43.83364 28.03421 36102 ft 455 kts 305°
2026-05-07 22:14 43.87105 27.96326 36096 ft 456 kts 305°
2026-05-07 22:15 43.90845 27.89215 36094 ft 456 kts 305°
2026-05-07 22:15 43.94577 27.82103 36092 ft 456 kts 305°
2026-05-07 22:16 43.98307 27.74977 36087 ft 456 kts 305°
2026-05-07 22:16 44.01402 27.69051 36087 ft 456 kts 305°
2026-05-07 22:17 44.05734 27.60735 36078 ft 456 kts 305°
2026-05-07 22:17 44.09450 27.53583 36071 ft 456 kts 305°
2026-05-07 22:18 44.14391 27.44048 36069 ft 456 kts 305°
2026-05-07 22:19 44.18095 27.36878 36068 ft 455 kts 305°
2026-05-07 22:19 44.21789 27.29710 36066 ft 455 kts 305°
2026-05-07 22:20 44.25478 27.22534 36062 ft 455 kts 305°
2026-05-07 22:20 44.29160 27.15353 36063 ft 455 kts 304°
2026-05-07 22:21 44.32842 27.08156 36058 ft 455 kts 304°
2026-05-07 22:21 44.36516 27.00955 36061 ft 455 kts 304°
2026-05-07 22:22 44.40189 26.93740 36066 ft 455 kts 304°
2026-05-07 22:22 44.43861 26.86508 36051 ft 456 kts 304°
2026-05-07 22:23 44.47529 26.79265 36050 ft 456 kts 304°
2026-05-07 22:23 44.51198 26.72002 36055 ft 457 kts 304°
2026-05-07 22:24 44.54860 26.64736 36053 ft 457 kts 304°
2026-05-07 22:24 44.58472 26.57401 36052 ft 457 kts 301°
2026-05-07 22:25 44.61309 26.49449 36056 ft 456 kts 292°
2026-05-07 22:25 44.63742 26.41231 36050 ft 456 kts 292°
2026-05-07 22:26 44.66173 26.32997 36058 ft 456 kts 292°
2026-05-07 22:26 44.68602 26.24822 36050 ft 456 kts 292°
2026-05-07 22:27 44.71051 26.16595 36054 ft 456 kts 292°
2026-05-07 22:27 44.73514 26.08304 36054 ft 456 kts 292°
2026-05-07 22:28 44.75957 26.00054 36059 ft 456 kts 292°
2026-05-07 22:28 44.78389 25.91809 36053 ft 456 kts 292°
2026-05-07 22:29 44.80815 25.83559 36064 ft 456 kts 292°
2026-05-07 22:29 44.83233 25.75306 36065 ft 456 kts 292°
2026-05-07 22:30 44.85628 25.67104 36063 ft 456 kts 292°
2026-05-07 22:30 44.88037 25.58830 36065 ft 456 kts 292°
2026-05-07 22:31 44.90435 25.50564 36068 ft 455 kts 292°
2026-05-07 22:31 44.92828 25.42290 36065 ft 455 kts 291°
2026-05-07 22:32 44.95215 25.34008 36069 ft 455 kts 291°
2026-05-07 22:32 44.97590 25.25742 36071 ft 455 kts 291°
2026-05-07 22:33 44.99963 25.17453 36074 ft 455 kts 291°
2026-05-07 22:33 45.02331 25.09154 36070 ft 455 kts 291°
2026-05-07 22:34 45.04695 25.00841 36066 ft 455 kts 291°
2026-05-07 22:34 45.07049 24.92535 36078 ft 455 kts 291°
2026-05-07 22:35 45.09399 24.84215 36079 ft 455 kts 291°
2026-05-07 22:35 45.11741 24.75897 36084 ft 455 kts 291°
2026-05-07 22:36 45.14075 24.67576 36087 ft 454 kts 290°
2026-05-07 22:36 45.16400 24.59261 36086 ft 454 kts 290°
2026-05-07 22:37 45.18721 24.50931 36082 ft 454 kts 290°
2026-05-07 22:37 45.21020 24.42652 36081 ft 454 kts 290°
2026-05-07 22:38 45.23324 24.34324 36087 ft 454 kts 290°
2026-05-07 22:38 45.25626 24.25979 36081 ft 454 kts 290°
2026-05-07 22:39 45.27920 24.17633 36096 ft 454 kts 290°
2026-05-07 22:39 45.30207 24.09281 36090 ft 454 kts 290°
2026-05-07 22:40 45.32487 24.00926 36097 ft 454 kts 289°
2026-05-07 22:40 45.34765 23.92550 36101 ft 454 kts 289°
2026-05-07 22:41 45.37038 23.84166 36101 ft 454 kts 289°
2026-05-07 22:41 45.39303 23.75779 36104 ft 454 kts 289°
2026-05-07 22:42 45.41561 23.67387 36100 ft 454 kts 289°
2026-05-07 22:42 45.43816 23.58982 36100 ft 454 kts 289°
2026-05-07 22:43 45.46060 23.50585 36099 ft 454 kts 289°
2026-05-07 22:43 45.48301 23.42170 36100 ft 454 kts 289°
2026-05-07 22:44 45.50536 23.33746 36099 ft 455 kts 289°
2026-05-07 22:44 45.52755 23.25355 36094 ft 455 kts 289°
2026-05-07 22:45 45.54985 23.16890 36090 ft 455 kts 288°
2026-05-07 22:45 45.57210 23.08414 36087 ft 456 kts 288°
2026-05-07 22:46 45.59431 22.99925 36088 ft 456 kts 288°
2026-05-07 22:46 45.61643 22.91437 36082 ft 456 kts 288°
2026-05-07 22:47 45.63849 22.82941 36081 ft 456 kts 288°
2026-05-07 22:47 45.66046 22.74447 36084 ft 456 kts 288°
2026-05-07 22:48 45.68228 22.65985 36077 ft 456 kts 288°
2026-05-07 22:48 45.70414 22.57477 36072 ft 456 kts 288°
2026-05-07 22:49 45.72594 22.48959 36070 ft 456 kts 288°
2026-05-07 22:49 45.74769 22.40428 36073 ft 455 kts 288°
2026-05-07 22:50 45.76934 22.31903 36071 ft 456 kts 288°
2026-05-07 22:50 45.79094 22.23368 36063 ft 456 kts 288°
2026-05-07 22:51 45.81249 22.14822 36048 ft 456 kts 288°
2026-05-07 22:51 45.83395 22.06281 36053 ft 456 kts 288°
2026-05-07 22:52 45.85537 21.97722 36063 ft 456 kts 287°
2026-05-07 22:52 45.87657 21.89215 36049 ft 456 kts 287°
2026-05-07 22:53 45.89790 21.80631 36046 ft 456 kts 287°
2026-05-07 22:53 45.91910 21.72062 36050 ft 455 kts 287°
2026-05-07 22:54 45.94024 21.63486 36049 ft 455 kts 287°
2026-05-07 22:54 45.96132 21.54904 36048 ft 455 kts 287°
2026-05-07 22:55 45.98232 21.46318 36045 ft 455 kts 287°
2026-05-07 22:55 46.00324 21.37737 36047 ft 454 kts 287°
2026-05-07 22:56 46.02407 21.29158 36048 ft 454 kts 287°
2026-05-07 22:56 46.04482 21.20576 36046 ft 454 kts 287°
2026-05-07 22:57 46.06548 21.12000 36049 ft 453 kts 287°
2026-05-07 22:57 46.08595 21.03470 36049 ft 453 kts 287°
2026-05-07 22:58 46.10647 20.94889 36046 ft 453 kts 287°
2026-05-07 22:58 46.12694 20.86290 36045 ft 453 kts 287°
2026-05-07 22:59 46.14735 20.77691 36046 ft 453 kts 287°
2026-05-07 22:59 46.16817 20.69117 36040 ft 454 kts 289°
2026-05-07 23:00 46.19200 20.60740 36043 ft 454 kts 291°
2026-05-07 23:00 46.21652 20.52340 36042 ft 454 kts 291°
2026-05-07 23:01 46.24085 20.43930 36046 ft 454 kts 290°
2026-05-07 23:01 46.26513 20.35452 36070 ft 455 kts 288°
2026-05-07 23:02 46.28904 20.27045 36057 ft 455 kts 288°
2026-05-07 23:02 46.31306 20.18563 36047 ft 455 kts 288°
2026-05-07 23:03 46.33704 20.10074 36052 ft 455 kts 288°
2026-05-07 23:03 46.35689 20.03023 36055 ft 455 kts 288°
2026-05-07 23:04 46.38076 19.94519 36049 ft 456 kts 288°
2026-05-07 23:04 46.40457 19.86007 36051 ft 456 kts 288°
2026-05-07 23:05 46.42829 19.77495 36049 ft 456 kts 288°
2026-05-07 23:05 46.45197 19.68970 36050 ft 456 kts 288°
2026-05-07 23:06 46.47556 19.60444 36046 ft 455 kts 288°
2026-05-07 23:06 46.49908 19.51914 36039 ft 455 kts 288°
2026-05-07 23:07 46.52250 19.43392 36044 ft 454 kts 288°
2026-05-07 23:07 46.54574 19.34905 36047 ft 454 kts 288°
2026-05-07 23:08 46.56899 19.26381 36044 ft 454 kts 288°
2026-05-07 23:08 46.59222 19.17836 36047 ft 454 kts 287°
2026-05-07 23:09 46.61537 19.09290 36045 ft 454 kts 287°
2026-05-07 23:09 46.63845 19.00740 36046 ft 454 kts 287°
2026-05-07 23:10 46.66147 18.92177 36043 ft 454 kts 287°
2026-05-07 23:10 46.68444 18.83606 36048 ft 454 kts 287°
2026-05-07 23:11 46.70719 18.75082 36048 ft 454 kts 287°
2026-05-07 23:11 46.73003 18.66495 36048 ft 454 kts 287°
2026-05-07 23:12 46.75280 18.57903 36047 ft 454 kts 287°
2026-05-07 23:12 46.77551 18.49300 36050 ft 454 kts 287°
2026-05-07 23:13 46.79819 18.40681 36051 ft 455 kts 287°
2026-05-07 23:13 46.82080 18.32058 36051 ft 455 kts 287°
2026-05-07 23:14 46.84314 18.23501 36052 ft 454 kts 287°
2026-05-07 23:14 46.86564 18.14853 36046 ft 454 kts 287°
2026-05-07 23:15 46.88800 18.06229 36050 ft 454 kts 287°
2026-05-07 23:15 46.91030 17.97594 36055 ft 453 kts 287°
2026-05-07 23:16 46.93247 17.88975 36041 ft 452 kts 287°
2026-05-07 23:16 46.95456 17.80359 36054 ft 452 kts 287°
2026-05-07 23:17 46.97657 17.71740 36050 ft 451 kts 287°
2026-05-07 23:17 46.99834 17.63178 36057 ft 451 kts 287°
2026-05-07 23:18 47.02017 17.54567 36052 ft 451 kts 286°
2026-05-07 23:18 47.04193 17.45948 36047 ft 450 kts 286°
2026-05-07 23:19 47.06350 17.37374 36048 ft 450 kts 286°
2026-05-07 23:19 47.08496 17.28808 36048 ft 450 kts 286°
2026-05-07 23:20 47.10666 17.20115 36050 ft 449 kts 286°
2026-05-07 23:20 47.12812 17.11485 36054 ft 449 kts 286°
2026-05-07 23:21 47.14934 17.02916 36056 ft 449 kts 286°
2026-05-07 23:21 47.17065 16.94282 36056 ft 449 kts 286°
2026-05-07 23:22 47.19193 16.85627 36054 ft 450 kts 286°
2026-05-07 23:22 47.21313 16.76966 36057 ft 450 kts 286°
2026-05-07 23:23 47.23428 16.68294 36053 ft 450 kts 286°
2026-05-07 23:23 47.25536 16.59620 36057 ft 451 kts 286°
2026-05-07 23:24 47.27649 16.50904 36060 ft 451 kts 287°
2026-05-07 23:24 47.30312 16.42502 36065 ft 456 kts 296°
2026-05-07 23:25 47.33457 16.34465 36069 ft 456 kts 296°
2026-05-07 23:25 47.36631 16.26362 36066 ft 456 kts 296°
2026-05-07 23:26 47.39775 16.18251 36068 ft 456 kts 296°
2026-05-07 23:26 47.42913 16.10093 36076 ft 456 kts 296°
2026-05-07 23:27 47.47595 15.97860 36076 ft 456 kts 296°
2026-05-07 23:27 47.50712 15.89686 36084 ft 456 kts 296°
2026-05-07 23:28 47.53755 15.81682 36089 ft 456 kts 296°
2026-05-07 23:28 47.56909 15.73360 36087 ft 456 kts 296°
2026-05-07 23:29 47.59993 15.65200 36077 ft 456 kts 296°
2026-05-07 23:29 47.63102 15.56949 36104 ft 456 kts 296°
2026-05-07 23:30 47.66192 15.48723 36087 ft 456 kts 296°
2026-05-07 23:30 47.69266 15.40510 36090 ft 456 kts 296°
2026-05-07 23:31 47.72341 15.32271 36090 ft 457 kts 296°
2026-05-07 23:31 47.75417 15.24006 36099 ft 457 kts 296°
2026-05-07 23:32 47.78489 15.15727 36095 ft 457 kts 296°
2026-05-07 23:32 47.81548 15.07456 36104 ft 456 kts 296°
2026-05-07 23:33 47.84601 14.99175 36096 ft 457 kts 296°
2026-05-07 23:33 47.87630 14.90932 36096 ft 457 kts 296°
2026-05-07 23:34 47.90681 14.82603 36096 ft 457 kts 296°
2026-05-07 23:34 47.93698 14.74341 36094 ft 457 kts 296°
2026-05-07 23:35 47.96732 14.66009 36090 ft 457 kts 296°
2026-05-07 23:35 47.99750 14.57691 36090 ft 457 kts 296°
2026-05-07 23:36 48.02760 14.49373 36095 ft 457 kts 296°
2026-05-07 23:36 48.05760 14.41054 36096 ft 457 kts 296°
2026-05-07 23:37 48.08753 14.32726 36101 ft 457 kts 296°
2026-05-07 23:37 48.11760 14.24335 36103 ft 457 kts 296°
2026-05-07 23:38 48.14736 14.16006 36102 ft 458 kts 296°
2026-05-07 23:38 48.17731 14.07592 36104 ft 458 kts 296°
2026-05-07 23:39 48.20722 13.99166 36108 ft 458 kts 296°
2026-05-07 23:39 48.23675 13.90818 36105 ft 458 kts 295°
2026-05-07 23:40 48.26647 13.82391 36097 ft 459 kts 295°
2026-05-07 23:40 48.29600 13.73988 36097 ft 459 kts 295°
2026-05-07 23:41 48.32585 13.65469 36095 ft 459 kts 295°
2026-05-07 23:41 48.35504 13.57108 36099 ft 459 kts 295°
2026-05-07 23:42 48.38447 13.48653 36095 ft 458 kts 295°
2026-05-07 23:42 48.41372 13.40225 36102 ft 458 kts 295°
2026-05-07 23:43 48.44298 13.31762 36097 ft 458 kts 295°
2026-05-07 23:43 48.47226 13.23208 36100 ft 458 kts 295°
2026-05-07 23:44 48.50115 13.14721 36098 ft 458 kts 295°
2026-05-07 23:44 48.53016 13.06176 36103 ft 458 kts 295°
2026-05-07 23:45 48.55881 12.97711 36102 ft 458 kts 295°
2026-05-07 23:45 48.58767 12.89162 36102 ft 458 kts 295°
2026-05-07 23:46 48.61644 12.80607 36105 ft 457 kts 295°
2026-05-07 23:46 48.64500 12.72087 36107 ft 457 kts 295°
2026-05-07 23:47 48.67369 12.63499 36109 ft 457 kts 295°
2026-05-07 23:47 48.70231 12.54904 36113 ft 457 kts 295°
2026-05-07 23:48 48.73029 12.46477 36100 ft 457 kts 295°
2026-05-07 23:48 48.75870 12.37886 36103 ft 457 kts 295°
2026-05-07 23:49 48.78629 12.29515 36102 ft 457 kts 295°
2026-05-07 23:49 48.80968 12.22400 36104 ft 457 kts 295°
2026-05-07 23:50 48.84147 12.12695 36104 ft 457 kts 295°
2026-05-07 23:50 48.86952 12.04101 36103 ft 457 kts 294°
2026-05-07 23:51 48.89316 11.96835 36100 ft 457 kts 294°
2026-05-07 23:51 48.92106 11.88233 36096 ft 457 kts 294°
2026-05-07 23:52 48.94870 11.79682 36091 ft 457 kts 294°
2026-05-07 23:52 48.97669 11.70995 36101 ft 457 kts 294°
2026-05-07 23:53 49.00398 11.62491 36099 ft 457 kts 294°
2026-05-07 23:53 49.03091 11.54074 36095 ft 457 kts 294°
2026-05-07 23:54 49.05885 11.45314 36103 ft 457 kts 294°
2026-05-07 23:54 49.08614 11.36727 36105 ft 457 kts 294°
2026-05-07 23:55 49.11377 11.28001 36114 ft 457 kts 294°
2026-05-07 23:55 49.14079 11.19435 36122 ft 457 kts 294°
2026-05-07 23:56 49.16795 11.10804 36121 ft 457 kts 294°
2026-05-07 23:56 49.19676 11.02126 36126 ft 458 kts 299°
2026-05-07 23:57 49.23079 10.93850 36130 ft 459 kts 300°
2026-05-07 23:57 49.26491 10.85592 36135 ft 459 kts 300°
2026-05-07 23:58 49.29868 10.77289 36110 ft 458 kts 300°
2026-05-07 23:58 49.31546 10.73151 35933 ft 456 kts 300°
2026-05-07 23:58 49.33201 10.69067 35659 ft 457 kts 300°
2026-05-07 23:59 49.34875 10.64931 35362 ft 457 kts 300°
2026-05-07 23:59 49.36549 10.60791 35083 ft 457 kts 300°
2026-05-07 23:59 49.38228 10.56632 34821 ft 457 kts 300°
2026-05-07 23:59 49.39891 10.52507 34566 ft 456 kts 300°
2026-05-08 00:00 49.41569 10.48336 33627 ft 461 kts 300°
2026-05-08 00:00 49.43249 10.44150 32738 ft 461 kts 300°
2026-05-08 00:00 49.44932 10.39953 31804 ft 462 kts 300°
2026-05-08 00:00 49.46621 10.35736 30868 ft 463 kts 300°
2026-05-08 00:01 49.48303 10.31529 30210 ft 459 kts 300°
2026-05-08 00:01 49.49918 10.27483 29465 ft 455 kts 300°
2026-05-08 00:01 49.51614 10.23231 28762 ft 451 kts 300°
2026-05-08 00:01 49.53244 10.19134 28127 ft 446 kts 300°
2026-05-08 00:02 49.54854 10.15082 27504 ft 442 kts 300°
2026-05-08 00:02 49.56454 10.11048 26868 ft 438 kts 300°
2026-05-08 00:02 49.58035 10.07056 26255 ft 435 kts 300°
2026-05-08 00:02 49.59608 10.03079 25649 ft 432 kts 300°
2026-05-08 00:03 49.61163 9.99140 25051 ft 429 kts 300°
2026-05-08 00:03 49.62709 9.95219 24474 ft 427 kts 300°
2026-05-08 00:03 49.64246 9.91313 23898 ft 424 kts 300°
2026-05-08 00:03 49.65772 9.87431 23252 ft 422 kts 300°
2026-05-08 00:04 49.67291 9.83562 22612 ft 420 kts 300°
2026-05-08 00:04 49.68792 9.79731 22049 ft 416 kts 300°
2026-05-08 00:04 49.70286 9.75914 21464 ft 413 kts 300°
2026-05-08 00:04 49.71743 9.72186 20909 ft 410 kts 300°
2026-05-08 00:05 49.73211 9.68423 20356 ft 407 kts 300°
2026-05-08 00:05 49.74668 9.64685 19816 ft 404 kts 300°
2026-05-08 00:05 49.76116 9.60964 19271 ft 402 kts 300°
2026-05-08 00:05 49.77550 9.57272 18728 ft 401 kts 300°
2026-05-08 00:06 49.78983 9.53578 18158 ft 399 kts 300°
2026-05-08 00:06 49.80410 9.49895 17559 ft 397 kts 300°
2026-05-08 00:06 49.81827 9.46232 17000 ft 395 kts 300°
2026-05-08 00:06 49.83237 9.42585 16447 ft 393 kts 300°
2026-05-08 00:07 49.84637 9.38960 15918 ft 391 kts 300°
2026-05-08 00:07 49.86018 9.35345 15376 ft 388 kts 298°
2026-05-08 00:07 49.87058 9.31520 14837 ft 384 kts 286°
2026-05-08 00:07 49.87770 9.27546 14326 ft 381 kts 284°
2026-05-08 00:08 49.88447 9.23627 13789 ft 381 kts 284°
2026-05-08 00:08 49.89153 9.19679 13198 ft 380 kts 285°
2026-05-08 00:08 49.89876 9.15765 12640 ft 373 kts 285°
2026-05-08 00:08 49.90595 9.11963 12122 ft 364 kts 286°
2026-05-08 00:09 49.91312 9.08193 11641 ft 364 kts 286°
2026-05-08 00:09 49.91858 9.05313 11247 ft 363 kts 286°
2026-05-08 00:09 49.92569 9.01574 11021 ft 355 kts 286°
2026-05-08 00:09 49.93263 8.97942 10870 ft 348 kts 286°
2026-05-08 00:10 49.93929 8.94457 10729 ft 336 kts 286°
2026-05-08 00:10 49.94580 8.91045 10594 ft 323 kts 286°
2026-05-08 00:10 49.95205 8.87759 10464 ft 311 kts 286°
2026-05-08 00:10 49.95804 8.84607 10362 ft 299 kts 286°
2026-05-08 00:11 49.96380 8.81572 10232 ft 287 kts 286°
2026-05-08 00:11 49.96930 8.78663 10124 ft 275 kts 285°
2026-05-08 00:11 49.97462 8.75846 10041 ft 273 kts 285°
2026-05-08 00:11 49.97969 8.73009 9916 ft 270 kts 279°
2026-05-08 00:12 49.97886 8.70125 9823 ft 268 kts 253°
2026-05-08 00:12 49.97267 8.67447 9752 ft 266 kts 249°
2026-05-08 00:12 49.96608 8.64765 9634 ft 260 kts 249°
2026-05-08 00:12 49.95976 8.62189 9512 ft 258 kts 250°
2026-05-08 00:13 49.95335 8.59556 9440 ft 264 kts 250°
2026-05-08 00:13 49.94681 8.56853 9337 ft 269 kts 250°
2026-05-08 00:13 49.94088 8.54404 9239 ft 270 kts 250°
2026-05-08 00:13 49.93553 8.52191 9129 ft 267 kts 250°
2026-05-08 00:14 49.92894 8.49466 9028 ft 265 kts 250°
2026-05-08 00:14 49.92250 8.46802 8927 ft 262 kts 250°
2026-05-08 00:14 49.91613 8.44161 8828 ft 261 kts 250°
2026-05-08 00:14 49.90980 8.41533 8731 ft 260 kts 250°
2026-05-08 00:15 49.90347 8.38909 8632 ft 260 kts 250°
2026-05-08 00:15 49.89710 8.36278 8530 ft 261 kts 250°
2026-05-08 00:15 49.89089 8.33711 8439 ft 262 kts 250°
2026-05-08 00:15 49.88449 8.31075 8341 ft 263 kts 250°
2026-05-08 00:16 49.87805 8.28421 8239 ft 264 kts 250°
2026-05-08 00:16 49.87157 8.25755 8140 ft 265 kts 250°
2026-05-08 00:16 49.86506 8.23082 8031 ft 265 kts 250°
2026-05-08 00:16 49.85855 8.20411 7958 ft 264 kts 250°
2026-05-08 00:17 49.85211 8.17767 7888 ft 262 kts 250°
2026-05-08 00:17 49.84565 8.15117 7802 ft 262 kts 250°
2026-05-08 00:17 49.83922 8.12484 7701 ft 261 kts 250°
2026-05-08 00:17 49.83278 8.09849 7611 ft 261 kts 250°
2026-05-08 00:18 49.82639 8.07237 7569 ft 258 kts 250°
2026-05-08 00:18 49.82000 8.04631 7435 ft 259 kts 250°
2026-05-08 00:18 49.81362 8.02033 7326 ft 258 kts 250°
2026-05-08 00:18 49.80723 7.99428 7237 ft 258 kts 250°
2026-05-08 00:19 49.80087 7.96842 7138 ft 257 kts 250°
2026-05-08 00:19 49.79450 7.94255 7032 ft 257 kts 249°
2026-05-08 00:19 49.78815 7.91674 6932 ft 255 kts 251°
2026-05-08 00:19 49.78588 7.89008 6826 ft 252 kts 279°
2026-05-08 00:20 49.79260 7.86515 6744 ft 256 kts 307°
2026-05-08 00:20 49.80635 7.84752 6674 ft 260 kts 334°
2026-05-08 00:20 49.82386 7.84108 6587 ft 261 kts
2026-05-08 00:20 49.84124 7.84591 6479 ft 249 kts 12°
2026-05-08 00:21 49.85784 7.85206 6348 ft 241 kts 12°
2026-05-08 00:21 49.87382 7.85930 6244 ft 242 kts 26°
2026-05-08 00:21 49.88600 7.87704 6157 ft 243 kts 59°
2026-05-08 00:21 49.89255 7.90078 6114 ft 244 kts 69°
2026-05-08 00:22 49.89863 7.92586 5998 ft 246 kts 69°
2026-05-08 00:22 49.90470 7.95077 5899 ft 250 kts 69°
2026-05-08 00:22 49.91090 7.97641 5849 ft 251 kts 69°
2026-05-08 00:22 49.91684 8.00083 5695 ft 231 kts 68°
2026-05-08 00:23 49.92226 8.02306 5564 ft 211 kts 68°
2026-05-08 00:23 49.92725 8.04349 5475 ft 193 kts 68°
2026-05-08 00:23 49.93183 8.06208 5349 ft 176 kts 66°
2026-05-08 00:23 49.93646 8.07963 5307 ft 179 kts 67°
2026-05-08 00:24 49.94118 8.09812 5262 ft 189 kts 68°
2026-05-08 00:24 49.94591 8.11729 5196 ft 190 kts 68°
2026-05-08 00:24 49.95048 8.13612 5100 ft 187 kts 68°
2026-05-08 00:24 49.95505 8.15506 5045 ft 183 kts 68°
2026-05-08 00:25 49.95944 8.17333 4999 ft 183 kts 68°
2026-05-08 00:25 49.96400 8.19230 4811 ft 187 kts 68°
2026-05-08 00:25 49.96848 8.21098 4534 ft 181 kts 68°
2026-05-08 00:25 49.97280 8.22899 4329 ft 177 kts 68°
2026-05-08 00:26 49.97706 8.24674 4057 ft 178 kts 68°
2026-05-08 00:26 49.98140 8.26482 3784 ft 175 kts 68°
2026-05-08 00:26 49.98558 8.28225 3543 ft 174 kts 68°
2026-05-08 00:26 49.98981 8.29986 3291 ft 174 kts 68°
2026-05-08 00:27 49.99401 8.31740 3035 ft 172 kts 68°
2026-05-08 00:27 49.99819 8.33481 2787 ft 171 kts 68°
2026-05-08 00:27 50.00232 8.35206 2547 ft 170 kts 68°
2026-05-08 00:27 50.00642 8.36915 2284 ft 167 kts 68°
2026-05-08 00:28 50.01047 8.38608 2057 ft 168 kts 68°
2026-05-08 00:28 50.01453 8.40300 1816 ft 164 kts 68°
2026-05-08 00:28 50.01845 8.41938 1538 ft 158 kts 68°
2026-05-08 00:28 50.02214 8.43478 1207 ft 146 kts 68°
2026-05-08 00:29 50.02557 8.44917 958 ft 144 kts 69°
2026-05-08 00:29 50.02846 8.46148 982 ft 184 kts 69°
2026-05-08 00:29 50.03321 8.48133 1041 ft 193 kts 66°